Milledgeville, GA

3:12 AM EST on December 06, 2019 (GMT -0500)
Baldwin County

Weather History for KMLJ - October, 2019

Change the Weather History Date:

Sunday, October 20, 2019

  Actual Average (WUND) Record (WUND)
Temperature  
Mean Temperature 68 °F -  
Max Temperature 78 °F - - (-1)
Min Temperature 57 °F - - (-1)
Cooling Degree Days 2    
Growing Degree Days 18 (Base 50)    
Moisture  
Dew Point 61 °F    
Average Humidity 87    
Maximum Humidity 100    
Minimum Humidity 57    
Precipitation  
Precipitation 0.00 in - - ()
Sea Level Pressure  
Sea Level Pressure 29.85 in    
Wind  
Wind Speed 6 mph (NW)    
Max Wind Speed 10 mph    
Max Gust Speed 16 mph    
Visibility 8 miles    
Events Rain    
Averages and records for this station are not official NWS values.
T = Trace of Precipitation, MM = Missing Value Source: NWS Daily Summary

Daily Weather History Graph

Daily Weather History Graph

Search for Another Location

Airport or City:

Astronomy

Oct. 20, 2019 Rise Set
Actual Time 7:41 AM EDT 6:53 PM EDT
Civil Twilight 7:15 AM EDT 7:19 PM EDT
Nautical Twilight 6:47 AM EDT 7:47 PM EDT
Astronomical Twilight 6:18 AM EDT 8:16 PM EDT
Moon No Moon Rise 1:55 PM EDT (10/20)
Length of Visible Light 12h 03m
Length of Day
11h 12m
Waning Gibbous, 59% of the Moon is Illuminated
Oct 20
Waning Gibbous
Oct 21
Last Quarter
Oct 27
New
Nov 4
First Quarter
Nov 12
Full

Hourly Weather History & Observations

Time (EDT) Temp. Dew Point Humidity Pressure Visibility Wind Dir Wind Speed Gust Speed Precip Events Conditions
12:15 AM 60.8 °F 60.8 °F 100% 29.66 in 5.0 mi NNE 10.4 mph 16.1 mph N/A Rain Rain
12:35 AM 60.8 °F 59.0 °F 94% 29.66 in 4.0 mi NE 6.9 mph - N/A   Drizzle
12:55 AM 59.0 °F 59.0 °F 100% 29.65 in 4.0 mi NNE 5.8 mph - N/A   Drizzle
1:15 AM 59.0 °F 59.0 °F 100% 29.66 in 5.0 mi North 6.9 mph - N/A Rain Light Rain
1:35 AM 59.0 °F 59.0 °F 100% 29.67 in 4.0 mi NNW 6.9 mph - N/A   Drizzle
1:55 AM 59.0 °F 59.0 °F 100% 29.67 in 4.0 mi North 10.4 mph - N/A Rain Rain
2:15 AM 59.0 °F 59.0 °F 100% 29.68 in 4.0 mi North 4.6 mph - N/A   Light Drizzle
2:35 AM 59.0 °F 57.2 °F 94% 29.68 in 4.0 mi North 4.6 mph - N/A   Overcast
2:55 AM 59.0 °F 57.2 °F 94% 29.68 in 7.0 mi North 6.9 mph - N/A   Overcast
3:15 AM 59.0 °F 57.2 °F 94% 29.70 in 7.0 mi NNW 5.8 mph - N/A   Overcast
3:35 AM 59.0 °F 57.2 °F 94% 29.71 in 5.0 mi NW 6.9 mph - N/A Rain Light Rain
3:55 AM 57.2 °F 55.4 °F 94% 29.71 in 2.5 mi NNW 6.9 mph - N/A   Light Drizzle
4:15 AM 57.2 °F 55.4 °F 94% 29.71 in 2.5 mi NNW 4.6 mph - N/A   Light Drizzle
4:35 AM 57.2 °F 55.4 °F 94% 29.73 in 3.0 mi NNW 5.8 mph - N/A   Overcast
4:55 AM 57.2 °F 55.4 °F 94% 29.74 in 2.5 mi NW 5.8 mph - N/A   Overcast
5:15 AM 57.2 °F 55.4 °F 94% 29.76 in 2.5 mi NW 8.1 mph - N/A   Overcast
5:35 AM 57.2 °F 57.2 °F 100% 29.77 in 2.0 mi NW 5.8 mph - N/A   Overcast
6:15 AM 57.2 °F 57.2 °F 100% 29.79 in 2.5 mi NW 4.6 mph - N/A   Light Drizzle
6:35 AM 57.2 °F 57.2 °F 100% 29.81 in 2.5 mi NW 5.8 mph - N/A   Overcast
6:55 AM 59.0 °F 57.2 °F 94% 29.82 in 2.5 mi NW 6.9 mph - N/A   Overcast
7:15 AM 59.0 °F 57.2 °F 94% 29.82 in 2.0 mi NW 5.8 mph - N/A   Overcast
7:35 AM 59.0 °F 59.0 °F 100% 29.83 in 3.0 mi WNW 6.9 mph - N/A   Overcast
7:55 AM 59.0 °F 59.0 °F 100% 29.84 in 7.0 mi WNW 6.9 mph - N/A   Overcast
8:15 AM 59.0 °F 59.0 °F 100% 29.84 in 5.0 mi NW 6.9 mph - N/A   Overcast
8:35 AM 59.0 °F 59.0 °F 100% 29.85 in 10.0 mi NW 4.6 mph - N/A   Overcast
8:55 AM 60.8 °F 59.0 °F 94% 29.85 in 10.0 mi Calm Calm - N/A   Overcast
9:15 AM 60.8 °F 59.0 °F 94% 29.86 in 10.0 mi Calm Calm - N/A   Overcast
9:35 AM 60.8 °F 60.8 °F 100% 29.88 in 10.0 mi Calm Calm - N/A   Overcast
9:55 AM 60.8 °F 60.8 °F 100% 29.89 in 10.0 mi West 4.6 mph - N/A   Overcast
10:15 AM 62.6 °F 60.8 °F 94% 29.89 in 10.0 mi WNW 8.1 mph - N/A   Overcast
10:35 AM 62.6 °F 60.8 °F 94% 29.90 in 10.0 mi West 3.5 mph - N/A   Overcast
10:55 AM 62.6 °F 60.8 °F 94% 29.90 in 10.0 mi West 3.5 mph - N/A   Overcast
11:15 AM 62.6 °F 60.8 °F 94% 29.90 in 10.0 mi West 4.6 mph - N/A   Overcast
11:35 AM 64.4 °F 60.8 °F 88% 29.91 in 10.0 mi WNW 4.6 mph - N/A   Overcast
11:55 AM 66.2 °F 62.6 °F 88% 29.91 in 10.0 mi West 5.8 mph - N/A   Overcast
12:15 PM 68.0 °F 62.6 °F 83% 29.91 in 10.0 mi WNW 9.2 mph - N/A   Overcast
12:35 PM 69.8 °F 62.6 °F 78% 29.90 in 10.0 mi WNW 5.8 mph - N/A   Mostly Cloudy
12:55 PM 69.8 °F 62.6 °F 78% 29.90 in 10.0 mi WNW 8.1 mph - N/A   Mostly Cloudy
1:15 PM 71.6 °F 62.6 °F 73% 29.90 in 10.0 mi NW 6.9 mph - N/A   Scattered Clouds
1:35 PM 73.4 °F 62.6 °F 69% 29.90 in 10.0 mi WNW 6.9 mph - N/A   Mostly Cloudy
1:55 PM 73.4 °F 62.6 °F 69% 29.89 in 10.0 mi NW 8.1 mph - N/A   Scattered Clouds
2:15 PM 75.2 °F 62.6 °F 65% 29.89 in 10.0 mi WNW 3.5 mph - N/A   Scattered Clouds
2:35 PM 77.0 °F 62.6 °F 61% 29.89 in 10.0 mi West 8.1 mph - N/A   Scattered Clouds
2:55 PM 77.0 °F 62.6 °F 61% 29.88 in 10.0 mi NW 8.1 mph - N/A   Clear
3:15 PM 77.0 °F 62.6 °F 61% 29.88 in 10.0 mi West 4.6 mph - N/A   Clear
3:35 PM 77.0 °F 62.6 °F 61% 29.89 in 10.0 mi West 6.9 mph - N/A   Clear
3:55 PM 78.8 °F 62.6 °F 57% 29.89 in 10.0 mi WNW 8.1 mph - N/A   Scattered Clouds
4:15 PM 78.8 °F 64.4 °F 61% 29.89 in 10.0 mi West 3.5 mph - N/A   Clear
4:35 PM 78.8 °F 62.6 °F 57% 29.89 in 10.0 mi West 3.5 mph - N/A   Clear
4:55 PM 78.8 °F 62.6 °F 57% 29.89 in 10.0 mi WNW 5.8 mph - N/A   Clear
5:15 PM 78.8 °F 62.6 °F 57% 29.90 in 10.0 mi Calm Calm - N/A   Clear
5:35 PM 77.0 °F 62.6 °F 61% 29.90 in 10.0 mi West 3.5 mph - N/A   Clear
5:55 PM 75.2 °F 62.6 °F 65% 29.90 in 10.0 mi WNW 4.6 mph - N/A   Clear
6:15 PM 73.4 °F 64.4 °F 73% 29.90 in 10.0 mi WNW 3.5 mph - N/A   Clear
6:35 PM 71.6 °F 64.4 °F 78% 29.91 in 10.0 mi Calm Calm - N/A   Clear
6:55 PM 69.8 °F 64.4 °F 83% 29.91 in 10.0 mi Calm Calm - N/A   Clear
7:35 PM 68.0 °F 64.4 °F 88% 29.92 in 10.0 mi Calm Calm - N/A   Clear
7:55 PM 68.0 °F 64.4 °F 88% 29.93 in 10.0 mi Calm Calm - N/A   Clear
8:15 PM 66.2 °F 64.4 °F 94% 29.94 in 10.0 mi Calm Calm - N/A   Clear
8:35 PM 66.2 °F 64.4 °F 94% 29.94 in 10.0 mi Calm Calm - N/A   Clear
8:55 PM 64.4 °F 64.4 °F 100% 29.94 in 10.0 mi Calm Calm - N/A   Clear
9:15 PM 64.4 °F 62.6 °F 94% 29.94 in 10.0 mi Calm Calm - N/A   Clear
9:55 PM 62.6 °F 62.6 °F 100% 29.95 in 10.0 mi Calm Calm - N/A   Clear
10:15 PM 62.6 °F 62.6 °F 100% 29.96 in 10.0 mi Calm Calm - N/A   Clear
10:35 PM 62.6 °F 62.6 °F 100% 29.97 in 10.0 mi Calm Calm - N/A   Clear
10:55 PM 62.6 °F 62.6 °F 100% 29.97 in 7.0 mi Calm Calm - N/A   Clear
11:15 PM 62.6 °F 62.6 °F 100% 29.98 in 7.0 mi Calm Calm - N/A   Clear
11:35 PM 62.6 °F 60.8 °F 94% 29.99 in 7.0 mi Calm Calm - N/A   Clear
11:55 PM 62.6 °F 62.6 °F 100% 29.99 in 3.0 mi Calm Calm - N/A   Clear